| time (UTC) | temp F | wind direction | speed MPH | gust MPH | rain 1hr in | rain 24hr in | rain mn in | humidity % | barometer mb |
| 20260508115458 | 49 | 212 | 5.0 | 7.0 | 0.00 | 0.00 | 0.00 | 71 | 1008.8 |
| 20260508114955 | 49 | 13 | 2.0 | 2.0 | 0.00 | 0.00 | 0.00 | 69 | 1008.7 |
| 20260508114452 | 49 | 17 | 3.0 | 3.0 | 0.00 | 0.00 | 0.00 | 68 | 1008.5 |
| 20260508113948 | 49 | 13 | 1.0 | 1.0 | 0.00 | 0.00 | 0.00 | 68 | 1008.8 |
| 20260508113446 | 49 | 13 | 0.0 | 0.0 | 0.00 | 0.00 | 0.00 | 69 | 1009.0 |
| 20260508112943 | 49 | 14 | 0.0 | 1.0 | 0.00 | 0.00 | 0.00 | 64 | 1009.0 |
| 20260508112439 | 49 | 13 | 0.0 | 1.0 | 0.00 | 0.00 | 0.00 | 65 | 1008.9 |
| 20260508111936 | 49 | 13 | 0.0 | 1.0 | 0.00 | 0.00 | 0.00 | 66 | 1009.0 |
| 20260508111433 | 48 | 13 | 0.0 | 1.0 | 0.00 | 0.00 | 0.00 | 63 | 1009.1 |
| 20260508110930 | 48 | 14 | 0.0 | 1.0 | 0.00 | 0.00 | 0.00 | 68 | 1009.0 |
| 20260508110428 | 48 | 14 | 0.0 | 1.0 | 0.00 | 0.00 | 0.00 | 66 | 1009.1 |
| 20260508105928 | 48 | 13 | 1.0 | 2.0 | 0.00 | 0.00 | 0.00 | 65 | 1008.8 |
| 20260508105424 | 47 | 13 | 0.0 | 1.0 | 0.00 | 0.00 | 0.00 | 66 | 1009.2 |
| 20260508104922 | 47 | 13 | 0.0 | 0.0 | 0.00 | 0.00 | 0.00 | 71 | 1009.0 |
| 20260508104419 | 47 | 13 | 0.0 | 0.0 | 0.00 | 0.00 | 0.00 | 70 | 1009.2 |
| 20260508103916 | 47 | 13 | 0.0 | 0.0 | 0.00 | 0.00 | 0.00 | 68 | 1009.4 |
| 20260508103413 | 46 | 12 | 0.0 | 1.0 | 0.00 | 0.00 | 0.00 | 71 | 1009.3 |
| 20260508102910 | 44 | 13 | 1.0 | 1.0 | 0.00 | 0.00 | 0.00 | 75 | 1009.4 |
| 20260508102408 | 44 | 13 | 0.0 | 0.0 | 0.00 | 0.00 | 0.00 | 83 | 1009.1 |
| 20260508101905 | 44 | 13 | 0.0 | 0.0 | 0.00 | 0.00 | 0.00 | 78 | 1009.1 |
| 20260508101402 | 45 | 13 | 0.0 | 0.0 | 0.00 | 0.00 | 0.00 | 76 | 1009.2 |
| 20260508100859 | 45 | 13 | 0.0 | 0.0 | 0.00 | 0.00 | 0.00 | 75 | 1009.2 |
| 20260508100359 | 44 | 13 | 0.0 | 1.0 | 0.00 | 0.00 | 0.00 | 75 | 1009.4 |
| 20260508095853 | 44 | 13 | 0.0 | 0.0 | 0.00 | 0.00 | 0.00 | 80 | 1009.4 |
| 20260508095352 | 44 | 13 | 0.0 | 0.0 | 0.00 | 0.00 | 0.00 | 79 | 1009.5 |
| 20260508094848 | 45 | 13 | 0.0 | 0.0 | 0.00 | 0.00 | 0.00 | 76 | 1009.4 |
| 20260508094345 | 45 | 13 | 0.0 | 0.0 | 0.00 | 0.00 | 0.00 | 76 | 1009.6 |
| 20260508093842 | 45 | 13 | 0.0 | 1.0 | 0.00 | 0.00 | 0.00 | 78 | 1009.5 |
| 20260508093339 | 45 | 13 | 0.0 | 0.0 | 0.00 | 0.00 | 0.00 | 76 | 1009.6 |
| 20260508092837 | 44 | 13 | 0.0 | 0.0 | 0.00 | 0.00 | 0.00 | 79 | 1009.3 |
| 20260508092335 | 44 | 13 | 0.0 | 0.0 | 0.00 | 0.00 | 0.00 | 80 | 1009.3 |
| 20260508091833 | 44 | 13 | 0.0 | 0.0 | 0.00 | 0.00 | 0.00 | 81 | 1009.1 |
| 20260508091329 | 45 | 13 | 0.0 | 0.0 | 0.00 | 0.00 | 0.00 | 81 | 1009.4 |
| 20260508090827 | 45 | 13 | 0.0 | 1.0 | 0.00 | 0.00 | 0.00 | 80 | 1009.2 |
| 20260508090325 | 45 | 13 | 0.0 | 0.0 | 0.00 | 0.00 | 0.00 | 80 | 1009.7 |
| 20260508085820 | 45 | 13 | 0.0 | 0.0 | 0.00 | 0.00 | 0.00 | 79 | 1009.5 |
| 20260508085318 | 45 | 13 | 0.0 | 1.0 | 0.00 | 0.00 | 0.00 | 79 | 1009.6 |
| 20260508084814 | 45 | 13 | 0.0 | 0.0 | 0.00 | 0.00 | 0.00 | 75 | 1009.6 |
| 20260508084311 | 46 | 13 | 0.0 | 0.0 | 0.00 | 0.00 | 0.00 | 72 | 1009.6 |
| 20260508083808 | 47 | 13 | 0.0 | 0.0 | 0.00 | 0.00 | 0.00 | 71 | 1009.4 |
| 20260508083305 | 46 | 13 | 0.0 | 0.0 | 0.00 | 0.00 | 0.00 | 71 | 1009.5 |
| 20260508082800 | 46 | 13 | 0.0 | 0.0 | 0.00 | 0.00 | 0.00 | 74 | 1009.3 |
| 20260508082258 | 46 | 13 | 0.0 | 0.0 | 0.00 | 0.00 | 0.00 | 75 | 1009.1 |
| 20260508081755 | 46 | 13 | 0.0 | 0.0 | 0.00 | 0.00 | 0.00 | 74 | 1009.1 |
| 20260508081251 | 46 | 13 | 0.0 | 0.0 | 0.00 | 0.00 | 0.00 | 74 | 1009.1 |
| 20260508080749 | 46 | 13 | 0.0 | 0.0 | 0.00 | 0.00 | 0.00 | 74 | 1009.2 |
| 20260508080247 | 46 | 13 | 0.0 | 0.0 | 0.00 | 0.00 | 0.00 | 74 | 1009.1 |
| 20260508075743 | 46 | 13 | 0.0 | 1.0 | 0.00 | 0.00 | 0.00 | 76 | 1009.3 |
| 20260508075239 | 46 | 13 | 0.0 | 0.0 | 0.00 | 0.00 | 0.00 | 76 | 1009.2 |
| 20260508074737 | 46 | 13 | 0.0 | 1.0 | 0.00 | 0.00 | 0.00 | 77 | 1009.3 |
| 20260508074235 | 47 | 13 | 0.0 | 1.0 | 0.00 | 0.00 | 0.00 | 77 | 1009.4 |
| 20260508073731 | 48 | 13 | 1.0 | 2.0 | 0.00 | 0.00 | 0.00 | 74 | 1009.4 |
| 20260508073230 | 48 | 13 | 3.0 | 3.0 | 0.00 | 0.00 | 0.00 | 74 | 1009.3 |
| 20260508072725 | 47 | 13 | 1.0 | 2.0 | 0.00 | 0.00 | 0.00 | 77 | 1009.4 |
| 20260508072222 | 46 | 14 | 0.0 | 0.0 | 0.00 | 0.00 | 0.00 | 79 | 1009.3 |
| 20260508071720 | 47 | 14 | 0.0 | 0.0 | 0.00 | 0.00 | 0.00 | 78 | 1009.3 |
| 20260508071218 | 49 | 14 | 0.0 | 2.0 | 0.00 | 0.00 | 0.00 | 75 | 1009.4 |
| 20260508070715 | 48 | 11 | 2.0 | 2.0 | 0.00 | 0.00 | 0.00 | 75 | 1009.6 |
| 20260508070214 | 48 | 12 | 0.0 | 1.0 | 0.00 | 0.00 | 0.00 | 76 | 1009.5 |
| 20260508065710 | 50 | 16 | 1.0 | 2.0 | 0.00 | 0.00 | 0.00 | 74 | 1009.4 |
| 20260508065209 | 49 | 19 | 3.0 | 3.0 | 0.00 | 0.00 | 0.00 | 74 | 1009.4 |
| 20260508064706 | 48 | 352 | 1.0 | 2.0 | 0.00 | 0.00 | 0.00 | 76 | 1009.6 |
| 20260508064204 | 48 | 353 | 1.0 | 1.0 | 0.00 | 0.00 | 0.00 | 78 | 1009.4 |
| 20260508063701 | 49 | 353 | 0.0 | 1.0 | 0.00 | 0.00 | 0.00 | 75 | 1009.7 |
| 20260508063159 | 49 | 352 | 0.0 | 1.0 | 0.00 | 0.00 | 0.00 | 74 | 1009.6 |
| 20260508062656 | 49 | 352 | 0.0 | 1.0 | 0.00 | 0.00 | 0.00 | 74 | 1009.7 |
| 20260508062153 | 50 | 353 | 1.0 | 1.0 | 0.00 | 0.00 | 0.00 | 74 | 1009.8 |
| 20260508061650 | 50 | 358 | 2.0 | 3.0 | 0.00 | 0.00 | 0.00 | 73 | 1009.7 |
| 20260508061148 | 50 | 1 | 1.0 | 2.0 | 0.00 | 0.00 | 0.00 | 73 | 1009.8 |
| 20260508060644 | 50 | 11 | 3.0 | 5.0 | 0.00 | 0.00 | 0.00 | 74 | 1009.7 |
| 20260508060141 | 49 | 2 | 3.0 | 3.0 | 0.00 | 0.00 | 0.00 | 75 | 1009.7 |
| 20260508055637 | 49 | 332 | 0.0 | 2.0 | 0.00 | 0.00 | 0.00 | 77 | 1009.9 |
| 20260508055134 | 49 | 327 | 1.0 | 1.0 | 0.00 | 0.00 | 0.00 | 76 | 1009.7 |
| 20260508054630 | 50 | 342 | 1.0 | 3.0 | 0.00 | 0.00 | 0.00 | 73 | 1009.7 |
| 20260508054128 | 51 | 359 | 1.0 | 3.0 | 0.00 | 0.00 | 0.00 | 73 | 1009.7 |
| 20260508053625 | 50 | 9 | 3.0 | 6.0 | 0.00 | 0.00 | 0.00 | 73 | 1009.7 |
| 20260508053122 | 49 | 331 | 3.0 | 5.0 | 0.00 | 0.00 | 0.00 | 77 | 1009.7 |
| 20260508052620 | 49 | 125 | 1.0 | 1.0 | 0.00 | 0.00 | 0.00 | 75 | 1009.8 |
| 20260508052116 | 50 | 125 | 0.0 | 0.0 | 0.00 | 0.00 | 0.00 | 73 | 1009.5 |
| 20260508051612 | 50 | 125 | 0.0 | 0.0 | 0.00 | 0.00 | 0.00 | 72 | 1009.8 |
| 20260508051108 | 51 | 125 | 0.0 | 1.0 | 0.00 | 0.00 | 0.00 | 71 | 1009.5 |
| 20260508050604 | 51 | 125 | 0.0 | 0.0 | 0.00 | 0.00 | 0.00 | 70 | 1009.7 |
| 20260508045558 | 52 | 125 | 1.0 | 1.0 | 0.00 | 0.00 | 0.00 | 67 | 1009.6 |
| 20260508045056 | 52 | 125 | 0.0 | 1.0 | 0.00 | 0.00 | 0.00 | 67 | 1009.6 |
| 20260508044553 | 52 | 125 | 0.0 | 0.0 | 0.00 | 0.00 | 0.00 | 67 | 1009.5 |
| 20260508044049 | 50 | 125 | 0.0 | 0.0 | 0.00 | 0.00 | 0.00 | 71 | 1009.5 |
| 20260508043545 | 50 | 125 | 0.0 | 0.0 | 0.00 | 0.00 | 0.00 | 71 | 1009.4 |
| 20260508043043 | 51 | 125 | 0.0 | 0.0 | 0.00 | 0.00 | 0.00 | 70 | 1009.6 |
| 20260508042539 | 51 | 125 | 0.0 | 0.0 | 0.00 | 0.00 | 0.00 | 69 | 1009.6 |
| 20260508042037 | 52 | 125 | 0.0 | 0.0 | 0.00 | 0.00 | 0.00 | 67 | 1009.7 |
| 20260508041533 | 52 | 125 | 0.0 | 1.0 | 0.00 | 0.00 | 0.00 | 67 | 1009.6 |
| 20260508041030 | 52 | 125 | 0.0 | 0.0 | 0.00 | 0.00 | 0.00 | 67 | 1009.8 |
| 20260508040527 | 52 | 125 | 0.0 | 1.0 | 0.00 | 0.00 | 0.00 | 66 | 1009.7 |
| 20260508040024 | 52 | 125 | 0.0 | 0.0 | 0.00 | 0.00 | 0.00 | 68 | 1009.7 |
| 20260508035521 | 52 | 125 | 0.0 | 0.0 | 0.00 | 0.00 | 0.00 | 67 | 1009.8 |
| 20260508035018 | 53 | 125 | 0.0 | 0.0 | 0.00 | 0.00 | 0.00 | 65 | 1009.8 |
| 20260508034515 | 53 | 124 | 0.0 | 2.0 | 0.00 | 0.00 | 0.00 | 64 | 1009.9 |
| 20260508034012 | 52 | 20 | 0.0 | 0.0 | 0.00 | 0.00 | 0.00 | 66 | 1009.8 |
| 20260508033510 | 53 | 20 | 0.0 | 0.0 | 0.00 | 0.00 | 0.00 | 66 | 1009.9 |
| 20260508033008 | 53 | 20 | 0.0 | 0.0 | 0.00 | 0.00 | 0.00 | 66 | 1009.7 |
| 20260508032504 | 53 | 20 | 0.0 | 0.0 | 0.00 | 0.00 | 0.00 | 66 | 1009.7 |
| 20260508032002 | 54 | 20 | 0.0 | 0.0 | 0.00 | 0.00 | 0.00 | 65 | 1009.8 |
| 20260508031459 | 54 | 20 | 1.0 | 1.0 | 0.00 | 0.00 | 0.00 | 65 | 1009.7 |
| 20260508030954 | 54 | 20 | 0.0 | 0.0 | 0.00 | 0.00 | 0.00 | 65 | 1009.8 |
| 20260508030451 | 54 | 20 | 0.0 | 0.0 | 0.00 | 0.00 | 0.00 | 63 | 1009.8 |
| 20260508025949 | 55 | 20 | 0.0 | 0.0 | 0.00 | 0.00 | 0.00 | 63 | 1009.6 |
| 20260508025445 | 56 | 20 | 0.0 | 1.0 | 0.00 | 0.00 | 0.00 | 60 | 1009.8 |
| 20260508024943 | 56 | 20 | 0.0 | 1.0 | 0.00 | 0.00 | 0.00 | 60 | 1009.6 |
| 20260508024438 | 56 | 19 | 0.0 | 1.0 | 0.00 | 0.00 | 0.00 | 60 | 1009.6 |
| 20260508023935 | 57 | 18 | 0.0 | 0.0 | 0.00 | 0.00 | 0.00 | 59 | 1009.7 |
| 20260508023432 | 57 | 18 | 1.0 | 1.0 | 0.00 | 0.00 | 0.00 | 58 | 1009.6 |
| 20260508022929 | 58 | 17 | 0.0 | 1.0 | 0.00 | 0.00 | 0.00 | 57 | 1009.6 |
| 20260508022425 | 58 | 19 | 0.0 | 1.0 | 0.00 | 0.00 | 0.00 | 56 | 1009.4 |
| 20260508021922 | 58 | 16 | 1.0 | 1.0 | 0.00 | 0.00 | 0.00 | 56 | 1009.3 |
| 20260508021418 | 58 | 17 | 1.0 | 2.0 | 0.00 | 0.00 | 0.00 | 56 | 1009.2 |
| 20260508020914 | 59 | 17 | 0.0 | 2.0 | 0.00 | 0.00 | 0.00 | 55 | 1009.2 |
| 20260508020412 | 58 | 1 | 0.0 | 1.0 | 0.00 | 0.00 | 0.00 | 56 | 1009.0 |
| 20260508015909 | 58 | 1 | 0.0 | 0.0 | 0.00 | 0.00 | 0.00 | 57 | 1009.0 |
| 20260508015407 | 59 | 1 | 0.0 | 0.0 | 0.00 | 0.00 | 0.00 | 58 | 1008.9 |
| 20260508014903 | 59 | 2 | 0.0 | 1.0 | 0.00 | 0.00 | 0.00 | 57 | 1008.7 |
| 20260508014400 | 59 | 7 | 0.0 | 0.0 | 0.00 | 0.00 | 0.00 | 56 | 1008.9 |
| 20260508013855 | 60 | 7 | 0.0 | 0.0 | 0.00 | 0.00 | 0.00 | 54 | 1008.7 |
| 20260508013352 | 60 | 8 | 1.0 | 2.0 | 0.00 | 0.00 | 0.00 | 53 | 1008.6 |
| 20260508012849 | 61 | 9 | 1.0 | 3.0 | 0.00 | 0.00 | 0.00 | 52 | 1008.5 |
| 20260508012346 | 61 | 5 | 3.0 | 3.0 | 0.00 | 0.00 | 0.00 | 51 | 1008.6 |
| 20260508011844 | 62 | 355 | 1.0 | 1.0 | 0.00 | 0.00 | 0.00 | 51 | 1008.6 |
| 20260508011342 | 62 | 27 | 2.0 | 7.0 | 0.00 | 0.00 | 0.00 | 49 | 1008.6 |
| 20260508010839 | 62 | 1 | 2.0 | 3.0 | 0.00 | 0.00 | 0.00 | 49 | 1008.4 |
| 20260508010336 | 63 | 359 | 1.0 | 3.0 | 0.00 | 0.00 | 0.00 | 49 | 1008.3 |
| 20260508005833 | 63 | 347 | 0.0 | 3.0 | 0.00 | 0.00 | 0.00 | 51 | 1008.3 |
| 20260508005330 | 63 | 337 | 0.0 | 1.0 | 0.00 | 0.00 | 0.00 | 49 | 1008.3 |
| 20260508004826 | 64 | 357 | 2.0 | 2.0 | 0.00 | 0.00 | 0.00 | 49 | 1008.2 |
| 20260508004322 | 64 | 7 | 3.0 | 8.0 | 0.00 | 0.00 | 0.00 | 48 | 1008.3 |
| 20260508003819 | 65 | 13 | 3.0 | 7.0 | 0.00 | 0.00 | 0.00 | 46 | 1008.0 |
| 20260508003316 | 65 | 29 | 3.0 | 7.0 | 0.00 | 0.00 | 0.00 | 46 | 1008.1 |
| 20260508002813 | 66 | 344 | 2.0 | 3.0 | 0.00 | 0.00 | 0.00 | 46 | 1008.0 |
| 20260508002309 | 66 | 9 | 1.0 | 3.0 | 0.00 | 0.00 | 0.00 | 44 | 1007.9 |
| 20260508001806 | 68 | 343 | 4.0 | 5.0 | 0.00 | 0.00 | 0.00 | 40 | 1007.8 |
| 20260508001301 | 68 | 283 | 0.0 | 0.0 | 0.00 | 0.00 | 0.00 | 41 | 1007.8 |
| 20260508000758 | 68 | 283 | 0.0 | 1.0 | 0.00 | 0.00 | 0.00 | 41 | 1007.7 |
| 20260508000257 | 68 | 271 | 0.0 | 1.0 | 0.00 | 0.00 | 0.00 | 40 | 1007.8 |
| 20260507235751 | 68 | 266 | 1.0 | 3.0 | 0.00 | 0.00 | 0.00 | 38 | 1007.8 |
| 20260507235249 | 68 | 272 | 0.0 | 2.0 | 0.00 | 0.00 | 0.00 | 38 | 1007.8 |
| 20260507234745 | 68 | 249 | 2.0 | 5.0 | 0.00 | 0.00 | 0.00 | 38 | 1007.8 |
| 20260507234242 | 68 | 242 | 2.0 | 2.0 | 0.00 | 0.00 | 0.00 | 40 | 1007.8 |
| 20260507233738 | 68 | 248 | 2.0 | 3.0 | 0.00 | 0.00 | 0.00 | 39 | 1008.0 |
| 20260507233237 | 69 | 208 | 3.0 | 5.0 | 0.00 | 0.00 | 0.00 | 40 | 1007.8 |
| 20260507232734 | 69 | 206 | 3.0 | 5.0 | 0.00 | 0.00 | 0.00 | 39 | 1007.9 |
| 20260507232231 | 69 | 222 | 2.0 | 3.0 | 0.00 | 0.00 | 0.00 | 39 | 1007.9 |
| 20260507231727 | 68 | 275 | 1.0 | 2.0 | 0.00 | 0.00 | 0.00 | 39 | 1008.0 |
| 20260507231224 | 68 | 240 | 3.0 | 3.0 | 0.00 | 0.00 | 0.00 | 39 | 1007.9 |
| 20260507230721 | 68 | 201 | 3.0 | 6.0 | 0.00 | 0.00 | 0.00 | 39 | 1008.2 |
| 20260507230219 | 68 | 235 | 4.0 | 9.0 | 0.00 | 0.00 | 0.00 | 37 | 1008.0 |
| 20260507225717 | 69 | 238 | 5.0 | 8.0 | 0.00 | 0.00 | 0.00 | 36 | 1007.9 |
| 20260507225214 | 69 | 265 | 1.0 | 3.0 | 0.00 | 0.00 | 0.00 | 39 | 1008.0 |
| 20260507224710 | 68 | 216 | 3.0 | 6.0 | 0.00 | 0.00 | 0.00 | 39 | 1008.0 |
| 20260507224207 | 68 | 253 | 4.0 | 7.0 | 0.00 | 0.00 | 0.00 | 38 | 1008.3 |
| 20260507223703 | 68 | 202 | 5.0 | 8.0 | 0.00 | 0.00 | 0.00 | 37 | 1008.4 |
| 20260507223200 | 68 | 235 | 2.0 | 6.0 | 0.00 | 0.00 | 0.00 | 38 | 1008.4 |
| 20260507222657 | 68 | 204 | 5.0 | 8.0 | 0.00 | 0.00 | 0.00 | 36 | 1008.3 |
| 20260507222153 | 68 | 240 | 4.0 | 7.0 | 0.00 | 0.00 | 0.00 | 37 | 1008.4 |
| 20260507221650 | 69 | 270 | 6.0 | 10.0 | 0.00 | 0.00 | 0.00 | 35 | 1008.5 |
| 20260507221146 | 69 | 224 | 6.0 | 10.0 | 0.00 | 0.00 | 0.00 | 35 | 1008.5 |
| 20260507220643 | 70 | 256 | 5.0 | 11.0 | 0.00 | 0.00 | 0.00 | 36 | 1008.3 |
| 20260507220141 | 70 | 218 | 5.0 | 8.0 | 0.00 | 0.00 | 0.00 | 37 | 1008.3 |
| 20260507215637 | 69 | 230 | 4.0 | 6.0 | 0.00 | 0.00 | 0.00 | 36 | 1008.5 |
| 20260507215135 | 69 | 236 | 7.0 | 11.0 | 0.00 | 0.00 | 0.00 | 35 | 1008.5 |
| 20260507214632 | 67 | 246 | 3.0 | 8.0 | 0.00 | 0.00 | 0.00 | 37 | 1008.6 |
| 20260507214128 | 68 | 236 | 4.0 | 6.0 | 0.00 | 0.00 | 0.00 | 38 | 1008.6 |
| 20260507213625 | 68 | 253 | 4.0 | 6.0 | 0.00 | 0.00 | 0.00 | 36 | 1008.7 |
| 20260507213122 | 68 | 201 | 5.0 | 7.0 | 0.00 | 0.00 | 0.00 | 38 | 1008.7 |
| 20260507212618 | 69 | 221 | 9.0 | 14.0 | 0.00 | 0.00 | 0.00 | 36 | 1008.7 |
| 20260507212114 | 69 | 227 | 5.0 | 13.0 | 0.00 | 0.00 | 0.00 | 36 | 1008.6 |
| 20260507211611 | 69 | 273 | 6.0 | 8.0 | 0.00 | 0.00 | 0.00 | 36 | 1008.7 |
| 20260507211107 | 67 | 223 | 3.0 | 9.0 | 0.00 | 0.00 | 0.00 | 38 | 1008.8 |
| 20260507210605 | 68 | 266 | 6.0 | 11.0 | 0.00 | 0.00 | 0.00 | 38 | 1009.0 |
| 20260507205558 | 68 | 194 | 4.0 | 9.0 | 0.00 | 0.00 | 0.00 | 36 | 1008.9 |
| 20260507205054 | 69 | 206 | 6.0 | 14.0 | 0.00 | 0.00 | 0.00 | 37 | 1009.2 |
| 20260507204550 | 69 | 245 | 4.0 | 9.0 | 0.00 | 0.00 | 0.00 | 38 | 1009.0 |
| 20260507204048 | 68 | 205 | 7.0 | 9.0 | 0.00 | 0.00 | 0.00 | 38 | 1009.0 |
| 20260507203546 | 68 | 228 | 5.0 | 10.0 | 0.00 | 0.00 | 0.00 | 37 | 1009.3 |
| 20260507203043 | 67 | 233 | 6.0 | 7.0 | 0.00 | 0.00 | 0.00 | 38 | 1009.3 |
| 20260507202539 | 67 | 243 | 3.0 | 6.0 | 0.00 | 0.00 | 0.00 | 36 | 1009.4 |
| 20260507202035 | 68 | 238 | 5.0 | 11.0 | 0.00 | 0.00 | 0.00 | 36 | 1009.4 |
| 20260507201531 | 68 | 217 | 8.0 | 11.0 | 0.00 | 0.00 | 0.00 | 37 | 1009.4 |
| 20260507201027 | 68 | 223 | 7.0 | 11.0 | 0.00 | 0.00 | 0.00 | 38 | 1009.5 |
| 20260507200523 | 69 | 244 | 6.0 | 8.0 | 0.00 | 0.00 | 0.00 | 36 | 1009.4 |
| 20260507200019 | 69 | 200 | 8.0 | 17.0 | 0.00 | 0.00 | 0.00 | 37 | 1009.6 |
| 20260507195516 | 67 | 222 | 6.0 | 8.0 | 0.00 | 0.00 | 0.00 | 36 | 1009.7 |
| 20260507195014 | 67 | 261 | 4.0 | 7.0 | 0.00 | 0.00 | 0.00 | 35 | 1009.6 |
| 20260507194510 | 68 | 294 | 7.0 | 10.0 | 0.00 | 0.00 | 0.00 | 34 | 1009.7 |
| 20260507194006 | 68 | 244 | 7.0 | 10.0 | 0.00 | 0.00 | 0.00 | 35 | 1009.7 |
| 20260507193504 | 68 | 269 | 6.0 | 9.0 | 0.00 | 0.00 | 0.00 | 35 | 1009.9 |
| 20260507193000 | 67 | 276 | 5.0 | 10.0 | 0.00 | 0.00 | 0.00 | 34 | 1009.8 |
| 20260507192456 | 67 | 275 | 5.0 | 8.0 | 0.00 | 0.00 | 0.00 | 35 | 1009.9 |
| 20260507191953 | 68 | 238 | 3.0 | 7.0 | 0.00 | 0.00 | 0.00 | 35 | 1009.8 |
| 20260507191449 | 69 | 289 | 9.0 | 13.0 | 0.00 | 0.00 | 0.00 | 39 | 1010.3 |
| 20260507190946 | 67 | 245 | 2.0 | 9.0 | 0.00 | 0.00 | 0.00 | 37 | 1009.7 |
| 20260507190444 | 66 | 223 | 4.0 | 9.0 | 0.00 | 0.00 | 0.00 | 36 | 1009.9 |
| 20260507185942 | 67 | 288 | 5.0 | 13.0 | 0.00 | 0.00 | 0.00 | 36 | 1009.9 |
| 20260507185439 | 66 | 258 | 5.0 | 8.0 | 0.00 | 0.00 | 0.00 | 38 | 1010.2 |
| 20260507184936 | 65 | 254 | 6.0 | 11.0 | 0.00 | 0.00 | 0.00 | 36 | 1010.2 |
| 20260507184434 | 66 | 252 | 5.0 | 10.0 | 0.00 | 0.00 | 0.00 | 37 | 1010.2 |
| 20260507183932 | 66 | 257 | 3.0 | 6.0 | 0.00 | 0.00 | 0.00 | 39 | 1010.2 |
| 20260507183428 | 66 | 278 | 6.0 | 7.0 | 0.00 | 0.00 | 0.00 | 37 | 1010.0 |
| 20260507182925 | 65 | 308 | 3.0 | 9.0 | 0.00 | 0.00 | 0.00 | 38 | 1010.4 |
| 20260507182421 | 65 | 300 | 3.0 | 6.0 | 0.00 | 0.00 | 0.00 | 40 | 1010.2 |
| 20260507181918 | 65 | 260 | 5.0 | 9.0 | 0.00 | 0.00 | 0.00 | 40 | 1010.3 |
| 20260507181414 | 65 | 261 | 5.0 | 8.0 | 0.00 | 0.00 | 0.00 | 40 | 1010.3 |
| 20260507180910 | 64 | 257 | 2.0 | 11.0 | 0.00 | 0.00 | 0.00 | 41 | 1010.7 |
| 20260507180407 | 65 | 223 | 3.0 | 11.0 | 0.00 | 0.00 | 0.00 | 40 | 1010.5 |
| 20260507175903 | 65 | 249 | 7.0 | 9.0 | 0.00 | 0.00 | 0.00 | 43 | 1010.6 |
| 20260507175400 | 65 | 248 | 3.0 | 9.0 | 0.00 | 0.00 | 0.00 | 43 | 1010.7 |
| 20260507174858 | 66 | 252 | 3.0 | 10.0 | 0.00 | 0.00 | 0.00 | 43 | 1010.8 |
| 20260507174355 | 67 | 295 | 5.0 | 6.0 | 0.00 | 0.00 | 0.00 | 44 | 1010.8 |
| 20260507173852 | 65 | 322 | 5.0 | 13.0 | 0.00 | 0.00 | 0.00 | 46 | 1011.0 |
| 20260507173349 | 64 | 230 | 3.0 | 5.0 | 0.00 | 0.00 | 0.00 | 47 | 1011.3 |
| 20260507172845 | 63 | 288 | 3.0 | 9.0 | 0.00 | 0.00 | 0.00 | 49 | 1011.2 |
| 20260507172342 | 63 | 211 | 5.0 | 8.0 | 0.00 | 0.00 | 0.00 | 48 | 1011.2 |
| 20260507171838 | 64 | 333 | 6.0 | 10.0 | 0.00 | 0.00 | 0.00 | 48 | 1011.3 |
| 20260507171335 | 64 | 216 | 4.0 | 8.0 | 0.00 | 0.00 | 0.00 | 47 | 1011.6 |
| 20260507170832 | 64 | 243 | 2.0 | 5.0 | 0.00 | 0.00 | 0.00 | 50 | 1011.6 |
| 20260507170329 | 62 | 253 | 4.0 | 6.0 | 0.00 | 0.00 | 0.00 | 51 | 1011.7 |
| 20260507165824 | 62 | 213 | 5.0 | 7.0 | 0.00 | 0.00 | 0.00 | 53 | 1011.9 |
| 20260507165321 | 62 | 262 | 2.0 | 3.0 | 0.00 | 0.00 | 0.00 | 52 | 1012.0 |
| 20260507164817 | 62 | 230 | 3.0 | 8.0 | 0.00 | 0.00 | 0.00 | 54 | 1011.7 |
| 20260507164314 | 61 | 234 | 4.0 | 7.0 | 0.00 | 0.00 | 0.00 | 53 | 1012.1 |
| 20260507163811 | 60 | 241 | 5.0 | 7.0 | 0.00 | 0.00 | 0.00 | 54 | 1012.1 |
| 20260507163309 | 60 | 239 | 4.0 | 11.0 | 0.00 | 0.00 | 0.00 | 56 | 1012.1 |
| 20260507162805 | 60 | 216 | 5.0 | 9.0 | 0.00 | 0.00 | 0.00 | 55 | 1012.0 |
| 20260507162300 | 62 | 239 | 2.0 | 3.0 | 0.00 | 0.00 | 0.00 | 55 | 1012.2 |
| 20260507161758 | 61 | 255 | 1.0 | 3.0 | 0.00 | 0.00 | 0.00 | 55 | 1012.3 |
| 20260507161254 | 58 | 256 | 1.0 | 6.0 | 0.00 | 0.00 | 0.00 | 59 | 1012.3 |
| 20260507160750 | 57 | 253 | 5.0 | 7.0 | 0.00 | 0.00 | 0.00 | 58 | 1012.3 |
| 20260507160247 | 58 | 240 | 3.0 | 7.0 | 0.00 | 0.00 | 0.00 | 60 | 1012.4 |
| 20260507155743 | 58 | 295 | 4.0 | 6.0 | 0.00 | 0.00 | 0.00 | 56 | 1012.4 |
| 20260507155239 | 58 | 237 | 2.0 | 6.0 | 0.00 | 0.00 | 0.00 | 59 | 1012.6 |
| 20260507154736 | 58 | 290 | 7.0 | 9.0 | 0.00 | 0.00 | 0.00 | 58 | 1012.7 |
| 20260507154233 | 57 | 265 | 3.0 | 7.0 | 0.00 | 0.00 | 0.00 | 62 | 1012.6 |
| 20260507153730 | 57 | 251 | 2.0 | 3.0 | 0.00 | 0.00 | 0.00 | 67 | 1012.6 |
| 20260507153226 | 56 | 251 | 3.0 | 6.0 | 0.00 | 0.00 | 0.00 | 64 | 1012.6 |
| 20260507152723 | 55 | 217 | 1.0 | 3.0 | 0.00 | 0.00 | 0.00 | 68 | 1012.5 |
| 20260507152219 | 55 | 244 | 3.0 | 5.0 | 0.00 | 0.00 | 0.00 | 67 | 1012.4 |
| 20260507151715 | 54 | 250 | 2.0 | 2.0 | 0.00 | 0.00 | 0.00 | 69 | 1012.5 |
| 20260507151212 | 53 | 195 | 3.0 | 6.0 | 0.00 | 0.00 | 0.00 | 70 | 1012.0 |
| 20260507150709 | 52 | 43 | 2.0 | 2.0 | 0.00 | 0.00 | 0.00 | 74 | 1012.4 |
| 20260507150206 | 51 | 46 | 3.0 | 3.0 | 0.00 | 0.00 | 0.00 | 75 | 1012.7 |
| 20260507145701 | 51 | 15 | 2.0 | 2.0 | 0.00 | 0.00 | 0.00 | 75 | 1013.1 |
| 20260507145158 | 51 | 341 | 5.0 | 7.0 | 0.00 | 0.00 | 0.00 | 75 | 1013.3 |
| 20260507144654 | 51 | 12 | 3.0 | 7.0 | 0.00 | 0.00 | 0.00 | 75 | 1013.3 |
| 20260507144153 | 51 | 349 | 3.0 | 6.0 | 0.00 | 0.00 | 0.00 | 75 | 1013.2 |
| 20260507143650 | 51 | 33 | 5.0 | 7.0 | 0.00 | 0.00 | 0.00 | 73 | 1013.1 |
| 20260507143147 | 52 | 1 | 4.0 | 6.0 | 0.00 | 0.00 | 0.00 | 72 | 1013.2 |
| 20260507142642 | 52 | 339 | 5.0 | 7.0 | 0.00 | 0.00 | 0.00 | 72 | 1013.3 |
| 20260507142139 | 52 | 345 | 2.0 | 5.0 | 0.00 | 0.00 | 0.00 | 72 | 1013.2 |
| 20260507141635 | 52 | 349 | 3.0 | 5.0 | 0.00 | 0.00 | 0.00 | 71 | 1013.2 |
| 20260507141132 | 52 | 316 | 3.0 | 6.0 | 0.00 | 0.00 | 0.00 | 70 | 1013.0 |
| 20260507140629 | 51 | 288 | 3.0 | 5.0 | 0.00 | 0.00 | 0.00 | 70 | 1013.1 |
| 20260507140126 | 52 | 265 | 3.0 | 5.0 | 0.00 | 0.00 | 0.00 | 70 | 1013.1 |
| 20260507135623 | 51 | 266 | 2.0 | 5.0 | 0.00 | 0.00 | 0.00 | 70 | 1013.1 |
| 20260507135121 | 51 | 303 | 4.0 | 8.0 | 0.00 | 0.00 | 0.00 | 69 | 1012.9 |
| 20260507134616 | 51 | 287 | 1.0 | 3.0 | 0.00 | 0.00 | 0.00 | 71 | 1012.9 |
| 20260507134113 | 51 | 235 | 5.0 | 7.0 | 0.00 | 0.00 | 0.00 | 70 | 1012.7 |
| 20260507133609 | 50 | 226 | 4.0 | 8.0 | 0.00 | 0.00 | 0.00 | 71 | 1012.8 |
| 20260507133107 | 50 | 226 | 7.0 | 10.0 | 0.00 | 0.00 | 0.00 | 71 | 1012.7 |
| 20260507132603 | 49 | 216 | 6.0 | 8.0 | 0.00 | 0.00 | 0.00 | 71 | 1012.5 |
| 20260507132100 | 49 | 251 | 3.0 | 7.0 | 0.00 | 0.00 | 0.00 | 72 | 1012.6 |
| 20260507131557 | 49 | 240 | 3.0 | 7.0 | 0.00 | 0.00 | 0.00 | 72 | 1012.6 |
| 20260507131054 | 49 | 245 | 5.0 | 7.0 | 0.00 | 0.00 | 0.00 | 72 | 1012.6 |
| 20260507130551 | 49 | 255 | 4.0 | 5.0 | 0.00 | 0.00 | 0.00 | 72 | 1012.6 |
| 20260507130049 | 49 | 237 | 3.0 | 10.0 | 0.00 | 0.00 | 0.00 | 72 | 1012.6 |
| 20260507125547 | 48 | 213 | 3.0 | 7.0 | 0.00 | 0.00 | 0.00 | 73 | 1012.5 |
| 20260507125044 | 48 | 242 | 5.0 | 7.0 | 0.00 | 0.00 | 0.00 | 72 | 1012.4 |
| 20260507124540 | 48 | 220 | 5.0 | 8.0 | 0.00 | 0.00 | 0.00 | 72 | 1012.3 |
| 20260507124038 | 48 | 217 | 6.0 | 8.0 | 0.00 | 0.00 | 0.00 | 71 | 1012.4 |
| 20260507123536 | 47 | 197 | 5.0 | 8.0 | 0.00 | 0.00 | 0.00 | 71 | 1012.3 |
| 20260507123033 | 46 | 211 | 4.0 | 7.0 | 0.00 | 0.00 | 0.00 | 72 | 1012.4 |
| 20260507122528 | 46 | 208 | 5.0 | 6.0 | 0.00 | 0.00 | 0.00 | 74 | 1012.3 |
| 20260507122024 | 45 | 206 | 5.0 | 7.0 | 0.00 | 0.00 | 0.00 | 74 | 1012.3 |
| 20260507121520 | 45 | 219 | 4.0 | 6.0 | 0.00 | 0.00 | 0.00 | 74 | 1012.3 |
| 20260507121016 | 44 | 203 | 4.0 | 5.0 | 0.00 | 0.00 | 0.00 | 73 | 1012.2 |
| 20260507120512 | 44 | 215 | 3.0 | 6.0 | 0.00 | 0.00 | 0.00 | 73 | 1012.4 |
| 20260507120010 | 43 | 220 | 4.0 | 5.0 | 0.00 | 0.00 | 0.00 | 73 | 1012.2 |